Miscellaneous Local Product
Issued by NWS Hastings, NE

Home | Current Version | Previous Version | Graphics & Text | Print | Product List | Glossary On
Versions: 1 2 3 4 5 6 7 8 9 10 11 12 13 14 15 16 17 18 19 20 21 22 23 24 25 26 27 28 29 30 31 32 33 34 35 36 37 38 39 40 41 42 43 44 45 46 47 48 49 50
000
AXUS43 KGID 021202
MISGRI

GID CWA HOURLY WEATHER ROUNDUP
NATIONAL WEATHER SERVICE HASTINGS NE
700 AM CDT WED SEP 02 2015

NOTE: "FAIR" INDICATES FEW OR NO CLOUDS BELOW 12,000 FEET WITH NO
SIGNIFICANT WEATHER AND/OR OBSTRUCTIONS TO VISIBILITY.

...SOUTH CENTRAL NEBRASKA...

CITY           SKY/WX    TMP DP  RH WIND       PRES   REMARKS
GRAND ISLAND   CLEAR     66  62  87 S7        29.89R
HASTINGS       CLEAR     68  60  75 S7        29.89S
KEARNEY        CLEAR     61  55  82 S5        29.89S
ORD            CLEAR     60  58  92 CALM      29.86R
YORK           CLEAR     68  66  94 S7        29.89S
AURORA         CLEAR     69  65  89 S8        29.89R
LEXINGTON      CLEAR     60  58  93 CALM      29.89F
HOLDREGE       CLEAR     65  57  75 S3        29.89S
HEBRON         CLEAR     73  63  70 S7        29.89F

...NEBRASKA PANHANDLE...

CITY           SKY/WX    TMP DP  RH WIND       PRES   REMARKS
CHADRON        MOCLDY    59  45  59 SW6       29.90R
ALLIANCE       PTCLDY    52  46  80 W7        29.95S
SCOTTSBLUFF    MOCLDY    56  51  84 NW7       29.97S
SIDNEY         PTCLDY    57  42  57 W10       30.00R

...WESTERN AND NORTH CENTRAL NEBRASKA...

CITY           SKY/WX    TMP DP  RH WIND       PRES   REMARKS
VALENTINE      CLEAR     56  54  93 SW5       29.84F
ONEILL         CLEAR     64  64  97 S6        29.85S
BROKEN BOW     CLEAR     62  59  90 CALM      29.88S
IMPERIAL       CLEAR     62  55  77 SW3       29.93R
NORTH PLATTE   CLEAR     60  57  89 CALM      29.90S
MCCOOK         CLEAR     62  57  83 W7        29.90S

...EASTERN NEBRASKA...

CITY           SKY/WX    TMP DP  RH WIND       PRES   REMARKS
NORFOLK        CLEAR     63  62  97 E5        29.86R FOG
SO SIOUX CITY  CLEAR     69  64  84 SE9       29.87S
TEKAMAH        CLEAR     69  68  96 SE6       29.88S FOG
COLUMBUS       CLEAR     70  63  78 S6        29.88R
ALBION         CLEAR     67  62  83 SE5       29.87R
OMAHA EPPLEY   PTCLDY    73  68  84 SE14      29.91R
OFFUTT AFB     PTCLDY    73  68  84 SE12      29.91R
MILLARD        CLEAR     71  68  90 SE7       29.90S
LINCOLN        CLEAR     70  66  87 S8        29.89S
NEBRASKA CITY  PTCLDY    72  66  81 S9        29.94R
BEATRICE       PTCLDY    71  66  84 S6        29.91S
FALLS CITY     CLOUDY    72  68  87 SE7       29.95R

...NORTHERN KANSAS...

CITY           SKY/WX    TMP DP  RH WIND       PRES   REMARKS
GOODLAND       CLEAR     62  56  80 SW7       29.97S
HILL CITY      CLEAR     71  57  61 SW6       29.91R
NORTON         SUNNY     64  55  72 SW5       29.90R
PHILLIPSBURG   CLEAR     73  59  60 CALM      29.89S
SMITH CENTER   CLEAR     66  57  72 S9        29.90S
HAYS           CLEAR     72  55  56 S15       29.93R
RUSSELL        CLEAR     74  60  61 S15       29.92R
CONCORDIA      CLEAR     73  63  70 S13       29.91S
SALINA         PTCLDY    77  62  59 S14       29.93R
TOPEKA         CLOUDY    75  66  73 S5        29.98R



USA.gov is the U.S. government's official web portal to all federal, state and local government web resources and services.